When you browse on this site, cookies collect data to enhance your experience and personalize the content and advertising you see.
Visit our Privacy Policy to learn more. By continuing to use the site, you agree to this use of cookies and data.
  • en France
  • Liste des pays
  • À 7 jours
  • Température de l'eau
  • Carte météo
  • Widgets météo
  • user-avatar
    Se connecter

    Météo par heure à Hamilton

    Ce jour, 1 Juin, Lundi

    Heure Température Précipitation Vent Pression Humidité
    00:00 +8°C° 0 mm 3 m/s 753 mmHg 73%
    01:00 +8°C° 0 mm 2 m/s 753 mmHg 78%
    02:00 +8°C° 0 mm 3 m/s 753 mmHg 78%
    03:00 +8°C° 0 mm 3 m/s 753 mmHg 79%
    04:00 +8°C° 0 mm 3 m/s 753 mmHg 79%
    05:00 +9°C° 0 mm 3 m/s 753 mmHg 77%
    06:00 +10°C° 0 mm 3 m/s 754 mmHg 76%
    07:00 +11°C° 0 mm 3 m/s 754 mmHg 74%
    08:00 +13°C° 0 mm 3 m/s 754 mmHg 68%
    09:00 +14°C° 0 mm 4 m/s 753 mmHg 63%
    10:00 +17°C° 0 mm 4 m/s 753 mmHg 58%
    11:00 +17°C° 0 mm 5 m/s 753 mmHg 56%
    12:00 +19°C° 0 mm 5 m/s 752 mmHg 54%
    13:00 +20°C° 0 mm 6 m/s 752 mmHg 52%
    14:00 +20°C° 0 mm 6 m/s 752 mmHg 53%
    15:00 +20°C° 0 mm 6 m/s 751 mmHg 54%
    16:00 +20°C° 0 mm 6 m/s 751 mmHg 55%
    17:00 +19°C° 0 mm 5 m/s 750 mmHg 60%
    18:00 +17°C° 0 mm 5 m/s 750 mmHg 65%
    19:00 +17°C° 0 mm 4 m/s 750 mmHg 70%
    20:00 +15°C° 0 mm 4 m/s 750 mmHg 66%
    21:00 +15°C° 0 mm 4 m/s 750 mmHg 63%
    22:00 +14°C° 0 mm 4 m/s 750 mmHg 59%
    23:00 +14°C° 0.1 mm 5 m/s 749 mmHg 67%

    Demain, 2 Juin, Mardi

    Heure Température Précipitation Vent Pression Humidité
    00:00 +13°C° 0.1 mm 5 m/s 749 mmHg 74%
    01:00 +12°C° 0.1 mm 5 m/s 748 mmHg 82%
    02:00 +12°C° 0.6 mm 5 m/s 748 mmHg 86%
    03:00 +12°C° 0.6 mm 4 m/s 747 mmHg 90%
    04:00 +12°C° 0.6 mm 4 m/s 747 mmHg 94%
    05:00 +12°C° 0.3 mm 5 m/s 746 mmHg 93%
    06:00 +12°C° 0.3 mm 5 m/s 746 mmHg 93%
    07:00 +11°C° 0.3 mm 6 m/s 745 mmHg 93%
    08:00 +13°C° 0.4 mm 6 m/s 745 mmHg 93%
    09:00 +13°C° 0.4 mm 6 m/s 744 mmHg 93%
    10:00 +14°C° 0.4 mm 6 m/s 744 mmHg 93%
    11:00 +15°C° 0 mm 6 m/s 743 mmHg 92%
    12:00 +16°C° 0 mm 5 m/s 743 mmHg 90%
    13:00 +17°C° 0 mm 5 m/s 743 mmHg 88%
    14:00 +19°C° 0.1 mm 5 m/s 742 mmHg 90%
    15:00 +19°C° 0.1 mm 4 m/s 742 mmHg 91%
    16:00 +20°C° 0.1 mm 4 m/s 741 mmHg 93%
    17:00 +20°C° 0.2 mm 4 m/s 741 mmHg 94%
    18:00 +21°C° 0.2 mm 4 m/s 741 mmHg 94%
    19:00 +21°C° 0.2 mm 4 m/s 741 mmHg 95%
    20:00 +21°C° 0.3 mm 4 m/s 741 mmHg 95%
    21:00 +21°C° 0.3 mm 4 m/s 741 mmHg 96%
    22:00 +21°C° 0.3 mm 4 m/s 740 mmHg 96%
    23:00 +21°C° 0.2 mm 4 m/s 740 mmHg 97%

    Après-demain, 3 Juin, Mercredi

    Heure Température Précipitation Vent Pression Humidité
    00:00 +21°C° 0.2 mm 4 m/s 740 mmHg 97%
    01:00 +21°C° 0.2 mm 4 m/s 740 mmHg 97%
    02:00 +21°C° 0 mm 4 m/s 740 mmHg 97%
    03:00 +21°C° 0 mm 4 m/s 740 mmHg 97%
    04:00 +21°C° 0 mm 4 m/s 740 mmHg 97%
    05:00 +21°C° 0.1 mm 4 m/s 739 mmHg 97%
    06:00 +21°C° 0.1 mm 4 m/s 739 mmHg 96%
    07:00 +22°C° 0.1 mm 4 m/s 739 mmHg 96%
    08:00 +22°C° 0.2 mm 4 m/s 739 mmHg 94%
    09:00 +23°C° 0.2 mm 4 m/s 739 mmHg 91%
    10:00 +23°C° 0.2 mm 5 m/s 738 mmHg 89%
    11:00 +23°C° 3.7 mm 5 m/s 738 mmHg 89%
    12:00 +23°C° 3.7 mm 5 m/s 738 mmHg 89%
    13:00 +23°C° 3.7 mm 5 m/s 737 mmHg 89%
    14:00 +23°C° 2.7 mm 5 m/s 737 mmHg 87%
    15:00 +25°C° 2.7 mm 5 m/s 737 mmHg 85%
    16:00 +25°C° 2.7 mm 4 m/s 738 mmHg 83%
    17:00 +23°C° 0.1 mm 4 m/s 738 mmHg 84%
    18:00 +22°C° 0.1 mm 3 m/s 738 mmHg 85%
    19:00 +23°C° 0.1 mm 2 m/s 738 mmHg 85%
    20:00 +20°C° 0 mm 3 m/s 739 mmHg 84%
    21:00 +19°C° 0 mm 3 m/s 739 mmHg 84%
    22:00 +18°C° 0 mm 4 m/s 740 mmHg 83%
    23:00 +17°C° 0 mm 4 m/s 740 mmHg 81%

    4 Juin, Jeudi

    Heure Température Précipitation Vent Pression Humidité
    00:00 +15°C° 0 mm 4 m/s 740 mmHg 80%
    01:00 +14°C° 0 mm 3 m/s 740 mmHg 79%
    02:00 +14°C° 0 mm 3 m/s 741 mmHg 81%
    03:00 +14°C° 0 mm 2 m/s 741 mmHg 84%
    04:00 +14°C° 0 mm 2 m/s 742 mmHg 87%
    05:00 +15°C° 0 mm 1 m/s 742 mmHg 85%
    06:00 +16°C° 0 mm 1 m/s 743 mmHg 83%
    07:00 +18°C° 0 mm 1 m/s 743 mmHg 81%
    08:00 +20°C° 0 mm 1 m/s 743 mmHg 76%
    09:00 +21°C° 0 mm 1 m/s 744 mmHg 72%
    10:00 +23°C° 0 mm 1 m/s 744 mmHg 67%
    11:00 +24°C° 0 mm 2 m/s 744 mmHg 63%
    12:00 +24°C° 0 mm 2 m/s 744 mmHg 60%
    13:00 +25°C° 0 mm 2 m/s 744 mmHg 56%
    14:00 +25°C° 0 mm 2 m/s 744 mmHg 56%
    15:00 +25°C° 0 mm 3 m/s 743 mmHg 57%
    16:00 +25°C° 0 mm 3 m/s 743 mmHg 57%
    17:00 +24°C° 0 mm 2 m/s 743 mmHg 62%
    18:00 +23°C° 0 mm 2 m/s 743 mmHg 66%
    19:00 +21°C° 0 mm 2 m/s 743 mmHg 71%
    20:00 +20°C° 0 mm 2 m/s 743 mmHg 73%
    21:00 +19°C° 0 mm 2 m/s 743 mmHg 74%
    22:00 +17°C° 0 mm 2 m/s 743 mmHg 76%
    23:00 +17°C° 0 mm 2 m/s 742 mmHg 77%

    5 Juin, Vendredi

    Heure Température Précipitation Vent Pression Humidité
    00:00 +17°C° 0 mm 2 m/s 742 mmHg 78%
    01:00 +16°C° 0 mm 2 m/s 742 mmHg 79%
    02:00 +16°C° 0 mm 2 m/s 742 mmHg 78%
    03:00 +16°C° 0 mm 2 m/s 741 mmHg 77%
    04:00 +16°C° 0 mm 2 m/s 741 mmHg 76%
    05:00 +17°C° 0 mm 3 m/s 742 mmHg 76%
    06:00 +18°C° 0 mm 3 m/s 742 mmHg 76%
    07:00 +19°C° 0 mm 4 m/s 742 mmHg 76%
    08:00 +21°C° 0 mm 4 m/s 742 mmHg 73%
    09:00 +22°C° 0 mm 4 m/s 742 mmHg 71%
    10:00 +25°C° 0 mm 4 m/s 743 mmHg 68%
    11:00 +26°C° 0 mm 5 m/s 743 mmHg 63%
    12:00 +26°C° 0 mm 5 m/s 743 mmHg 58%
    13:00 +27°C° 0 mm 6 m/s 743 mmHg 53%
    14:00 +27°C° 0 mm 6 m/s 743 mmHg 54%
    15:00 +27°C° 0 mm 5 m/s 742 mmHg 55%
    16:00 +26°C° 0 mm 5 m/s 742 mmHg 56%
    17:00 +25°C° 0 mm 4 m/s 742 mmHg 61%
    18:00 +23°C° 0 mm 4 m/s 743 mmHg 66%
    19:00 +22°C° 0 mm 3 m/s 743 mmHg 70%
    20:00 +21°C° 0 mm 3 m/s 743 mmHg 74%
    21:00 +19°C° 0 mm 2 m/s 743 mmHg 77%
    22:00 +18°C° 0 mm 2 m/s 744 mmHg 81%
    23:00 +17°C° 0 mm 3 m/s 744 mmHg 80%

    6 Juin, Samedi

    Heure Température Précipitation Vent Pression Humidité
    00:00 +16°C° 0 mm 3 m/s 744 mmHg 80%
    01:00 +16°C° 0 mm 3 m/s 744 mmHg 79%
    02:00 +14°C° 0 mm 3 m/s 744 mmHg 80%
    03:00 +13°C° 0 mm 3 m/s 744 mmHg 81%
    04:00 +13°C° 0 mm 3 m/s 744 mmHg 82%
    05:00 +13°C° 0 mm 3 m/s 745 mmHg 81%
    06:00 +14°C° 0 mm 3 m/s 745 mmHg 80%
    07:00 +16°C° 0 mm 3 m/s 746 mmHg 79%
    08:00 +17°C° 0 mm 4 m/s 746 mmHg 73%
    09:00 +18°C° 0 mm 4 m/s 746 mmHg 67%
    10:00 +19°C° 0 mm 4 m/s 747 mmHg 62%
    11:00 +20°C° 0 mm 4 m/s 747 mmHg 58%
    12:00 +21°C° 0 mm 3 m/s 747 mmHg 54%
    13:00 +21°C° 0 mm 3 m/s 747 mmHg 51%
    14:00 +21°C° 0 mm 4 m/s 747 mmHg 52%
    15:00 +21°C° 0 mm 4 m/s 747 mmHg 54%
    16:00 +20°C° 0 mm 5 m/s 747 mmHg 55%
    17:00 +19°C° 0 mm 5 m/s 747 mmHg 57%
    18:00 +17°C° 0 mm 5 m/s 747 mmHg 60%
    19:00 +17°C° 0 mm 4 m/s 747 mmHg 62%
    20:00 +14°C° 0 mm 4 m/s 748 mmHg 62%
    21:00 +13°C° 0 mm 4 m/s 748 mmHg 63%
    22:00 +12°C° 0 mm 4 m/s 749 mmHg 63%
    23:00 +11°C° 0 mm 4 m/s 749 mmHg 64%
    Voir plus